1497873601.13,54831,19.75,74720.5,29.87,-14.43,-15.63,0,*41
1497873602.35,54832,19.69,74716.5,29.87,-14.89,-16.03,0,*41
1497873603.6,54833,19.69,74718.8,29.91,-14.93,-15.85,0,*41
1497873604.86,54834,19.69,74716.3,29.91,-14.05,-14.97,0,*4B
1497873606.09,54835,19.69,74720.5,29.95,-12.57,-13.55,0,*46
1497873607.32,54836,19.69,74718.8,29.99,-14.55,-15.53,0,*4D
1497873608.58,54837,19.69,74718.8,29.97,-17.17,-18.07,0,*4B
1497873609.81,54838,19.75,74722.8,29.99,-16.13,-16.89,0,*47
1497873611.06,54839,19.75,74722.0,29.97,-15.85,-16.75,0,*47
1497873612.28,54840,19.75,74720.5,29.99,-14.37,-15.25,0,*49
1497873613.53,54841,19.69,74718.5,29.99,-15.43,-16.69,0,*41
1497873614.76,54842,19.69,74720.5,30.01,-15.95,-16.97,0,*41
1497873616.0,54843,19.69,74718.3,30.01,-16.59,-17.93,0,*46
1497873617.26,54844,19.69,74718.5,29.99,-15.43,-16.69,0,*44
1497873618.47,54845,19.69,74718.5,29.99,-13.93,-15.25,0,*45
1497873619.69,54846,19.75,74722.0,30.03,-16.93,-17.97,0,*43
1497873620.91,54847,19.69,74718.0,30.03,-18.65,-19.41,0,*40
1497873622.16,54848,19.69,74720.5,29.99,-17.59,-18.01,0,*41
1497873623.36,54849,19.69,74720.8,29.99,-18.49,-18.99,0,*4F
1497873624.61,54850,19.75,74722.3,29.97,-17.97,-18.11,0,*45
1497873625.84,54851,19.75,74722.5,29.99,-15.67,-15.81,0,*43
1497873627.08,54852,19.75,74722.3,30.01,-15.53,-15.53,0,*41
1497873628.3,54853,19.75,74722.8,30.03,-16.37,-16.27,0,*43
1497873629.5,54854,19.69,74718.0,30.03,-16.97,-16.83,0,*40
1497873630.75,54855,19.75,74720.5,30.05,-16.79,-16.51,0,*48
1497873632.03,54856,19.69,74718.8,30.09,-17.45,-17.11,0,*4C
1497873633.31,54857,19.75,74722.5,30.09,-17.45,-17.21,0,*4E
1497873634.54,54858,19.75,74720.3,30.09,-18.11,-18.11,0,*43
1497873635.79,54859,19.75,74720.8,30.09,-18.07,-17.93,0,*40
1497873637.07,54860,19.75,74720.0,30.09,-20.53,-20.53,0,*48
1497873638.3,54861,19.69,74720.0,30.05,-18.73,-18.45,0,*40
1497873639.55,54862,19.69,74718.0,30.05,-17.07,-16.89,0,*41
1497873640.82,54863,19.69,74718.0,30.09,-17.63,-17.45,0,*4F
1497873642.1,54864,19.75,74720.3,30.05,-17.79,-17.41,0,*4B
1497873643.34,54865,19.75,74722.5,30.09,-17.93,-17.73,0,*43
1497873644.61,54866,19.75,74720.3,30.11,-17.45,-17.07,0,*41
1497873645.83,54867,19.75,74720.8,30.11,-17.83,-17.41,0,*48
1497873647.06,54868,19.75,74720.3,30.11,-19.13,-18.89,0,*4B
1497873648.31,54869,19.75,74722.5,30.13,-17.73,-17.41,0,*4B
1497873649.53,54870,19.69,74720.8,30.17,-20.25,-19.75,0,*49
1497873650.77,54871,19.75,74722.0,30.13,-20.63,-20.43,0,*41
1497873651.98,54872,19.75,74722.8,30.11,-19.41,-19.03,0,*44
1497873653.24,54873,19.75,74722.8,30.13,-17.87,-17.41,0,*4B
1497873654.51,54874,19.75,74722.0,30.13,-17.11,-16.65,0,*44
1497873655.77,54875,19.75,74722.0,30.15,-17.17,-17.03,0,*44
1497873657.05,54876,19.75,74720.8,30.17,-16.31,-16.09,0,*4B
1497873658.33,54877,19.75,74720.5,30.21,-16.09,-15.81,0,*47
1497873659.56,54878,19.75,74722.0,30.21,-15.95,-15.99,0,*47
1497873660.76,54879,19.75,74720.0,30.23,-16.37,-16.37,0,*48
1497873661.97,54880,19.75,74718.8,30.27,-15.75,-15.75,0,*4A
1497873663.22,54881,19.75,74720.3,30.27,-15.81,-16.13,0,*43
1497873664.45,54882,19.75,74722.8,30.31,-16.03,-16.31,0,*4E
1497873665.7,54883,19.75,74720.0,30.31,-15.57,-15.89,0,*4D
1497873666.95,54884,19.75,74720.8,30.35,-15.57,-15.85,0,*42
1497873668.21,54885,19.75,74722.5,30.39,-15.39,-15.81,0,*43
1497873669.42,54886,19.75,74718.3,30.39,-18.79,-19.51,0,*48
1497873670.65,54887,19.75,74722.5,30.37,-19.91,-20.43,0,*49
1497873671.94,54888,19.75,74720.5,30.37,-21.23,-21.87,0,*4D
1497873673.21,54889,19.75,74722.5,30.33,-22.77,-23.53,0,*41
1497873674.42,54890,19.75,74722.3,30.27,-22.53,-23.09,0,*45
1497873675.67,54891,19.75,74722.5,30.25,-22.93,-23.33,0,*43
1497873676.91,54892,19.75,74722.8,30.23,-22.93,-23.23,0,*47
1497873678.11,54893,19.69,74716.8,30.19,-22.63,-22.83,0,*4B
1497873679.33,54894,19.75,74720.0,30.17,-22.41,-22.53,0,*4F
1497873680.54,54895,19.75,74720.3,30.15,-21.77,-22.03,0,*4F
1497873681.73,54896,19.75,74722.0,30.15,-21.39,-21.63,0,*43
1497873682.93,54897,19.75,74720.0,30.11,-23.59,-23.59,0,*49
1497873684.21,54898,19.75,74720.0,30.09,-21.33,-21.27,0,*4A
1497873685.47,54899,19.75,74722.5,30.09,-21.27,-21.17,0,*4D
1497873686.74,54900,19.75,74720.8,30.09,-21.03,-20.99,0,*4D
1497873687.98,54901,19.69,74718.8,30.05,-20.89,-20.73,0,*47
1497873689.2,54902,19.75,74720.8,30.05,-23.39,-23.39,0,*41
1497873690.47,54903,19.75,74720.3,30.01,-23.65,-23.53,0,*41
1497873691.72,54904,19.75,74722.8,29.97,-25.29,-24.97,0,*40
1497873692.97,54905,19.75,74720.5,29.93,-25.09,-24.83,0,*42
1497873694.25,54906,19.75,74720.5,29.93,-23.49,-23.03,0,*4C
1497873695.5,54907,19.75,74720.5,29.89,-22.37,-21.83,0,*44
1497873696.73,54908,19.75,74720.8,29.89,-22.63,-22.11,0,*42
1497873697.95,54909,19.75,74724.5,29.87,-19.99,-19.51,0,*4C
1497873699.21,54910,19.75,74720.8,29.89,-21.39,-20.99,0,*45
1497873700.43,54911,19.75,74722.5,29.89,-22.11,-21.77,0,*4C
1497873701.69,54912,19.75,74720.8,29.87,-21.03,-20.25,0,*47
1497873702.93,54913,19.75,74720.5,29.87,-20.39,-19.81,0,*4A
1497873704.21,54914,19.75,74720.3,29.89,-19.31,-18.59,0,*45
1497873705.44,54915,19.75,74722.0,29.91,-18.93,-18.21,0,*4B
1497873706.66,54916,19.75,74722.3,29.89,-19.03,-18.25,0,*4D
1497873707.91,54917,19.75,74722.0,29.91,-18.35,-17.59,0,*45
1497873709.13,54918,19.75,74718.8,29.95,-17.59,-16.93,0,*4C
1497873710.34,54919,19.75,74720.3,29.99,-16.97,-15.99,0,*4B
1497873711.57,54920,19.75,74722.5,30.01,-16.55,-15.71,0,*40
1497873712.78,54921,19.75,74720.3,30.03,-17.31,-16.51,0,*41
1497873714.05,54922,19.75,74722.5,30.09,-17.93,-17.17,0,*43
1497873715.28,54923,19.75,74716.5,30.09,-18.07,-17.31,0,*44
1497873716.51,54924,19.75,74720.8,30.13,-18.65,-17.87,0,*41
1497873717.73,54925,19.75,74722.0,30.13,-17.83,-16.93,0,*43
1497873718.98,54926,19.75,74720.0,30.13,-18.17,-17.25,0,*4E
1497873720.26,54927,19.75,74720.3,30.17,-19.61,-18.93,0,*49
1497873721.54,54928,19.75,74718.5,30.17,-17.79,-17.03,0,*47
1497873722.79,54929,19.75,74722.0,30.21,-16.69,-15.67,0,*43
1497873724.0,54930,19.75,74722.3,30.23,-16.59,-15.71,0,*4D
1497873725.25,54931,19.75,74720.0,30.25,-16.55,-15.57,0,*42
1497873726.45,54932,19.75,74722.8,30.27,-17.73,-16.93,0,*4D
1497873727.71,54933,19.75,74720.5,30.31,-18.93,-18.01,0,*4F
1497873728.91,54934,19.75,74718.0,30.31,-19.17,-18.45,0,*45
1497873730.14,54935,19.75,74716.8,30.31,-19.99,-19.31,0,*40
1497873731.34,54936,19.75,74720.0,30.31,-19.07,-18.17,0,*41
1497873732.59,54937,19.75,74720.8,30.33,-18.93,-18.17,0,*4E
1497873733.85,54938,19.75,74720.0,30.33,-17.87,-17.07,0,*45
1497873735.1,54939,19.75,74722.5,30.35,-17.97,-17.17,0,*42
1497873736.33,54940,19.75,74720.3,30.35,-18.55,-17.69,0,*44
1497873737.56,54941,19.75,74720.5,30.35,-18.35,-17.49,0,*41
1497873738.79,54942,19.75,74720.3,30.39,-18.21,-17.41,0,*43
1497873740.03,54943,19.75,74722.0,30.41,-16.93,-16.27,0,*4B
1497873741.26,54944,19.75,74722.0,30.43,-17.97,-17.31,0,*4D
1497873742.49,54945,19.75,74722.8,30.43,-17.63,-16.79,0,*4A
1497873743.72,54946,19.75,74722.0,30.43,-18.73,-17.97,0,*46
1497873744.92,54947,19.75,74716.8,30.47,-18.17,-17.35,0,*49
1497873746.13,54948,19.75,74722.0,30.47,-19.85,-19.07,0,*43
1497873747.38,54949,19.75,74720.3,30.45,-20.79,-19.99,0,*4E
1497873748.62,54950,19.75,74722.3,30.47,-19.81,-18.93,0,*42
1497873749.84,54951,19.75,74716.8,30.45,-19.71,-18.83,0,*4F
1497873751.07,54952,19.75,74722.0,30.47,-19.65,-18.45,0,*41
1497873752.33,54953,19.75,74716.0,30.45,-19.13,-18.35,0,*44
1497873753.53,54954,19.75,74722.3,30.47,-18.73,-17.73,0,*4B
1497873754.73,54955,19.75,74720.8,30.47,-21.43,-20.59,0,*4F
1497873755.95,54956,19.75,74722.3,30.47,-23.23,-22.53,0,*40
1497873757.21,54957,19.75,74722.5,30.41,-23.09,-22.21,0,*4A
1497873758.46,54958,19.75,74722.3,30.41,-21.03,-20.05,0,*49
1497873759.69,54959,19.75,74718.0,30.39,-18.49,-17.63,0,*47
1497873760.94,54960,19.75,74720.5,30.41,-18.07,-17.17,0,*4B
1497873762.14,54961,19.75,74718.3,30.43,-17.83,-16.93,0,*46
1497873763.4,54962,19.75,74722.5,30.43,-17.97,-17.21,0,*48
1497873764.65,54963,19.75,74718.5,30.45,-18.31,-17.49,0,*42
1497873765.88,54964,19.75,74720.0,30.47,-18.01,-17.35,0,*4F
1497873767.11,54965,19.75,74722.3,30.49,-19.37,-18.65,0,*4E
1497873768.37,54966,19.75,74722.3,30.49,-19.31,-18.59,0,*44
1497873769.6,54967,19.75,74720.0,30.49,-20.59,-19.99,0,*4C
1497873770.85,54968,19.75,74722.5,30.49,-18.93,-18.25,0,*48
1497873772.04,54969,19.75,74720.0,30.47,-19.71,-19.07,0,*4B
1497873773.26,54970,19.75,74718.5,30.47,-21.39,-20.79,0,*47
1497873774.51,54971,19.75,74718.8,30.45,-22.83,-22.21,0,*49
1497873775.74,54972,19.75,74720.0,30.41,-23.09,-22.57,0,*4C
1497873777.01,54973,19.75,74720.5,30.41,-23.33,-23.19,0,*4F
1497873778.28,54974,19.75,74720.3,30.37,-23.69,-23.29,0,*45
1497873779.54,54975,19.75,74720.3,30.33,-24.25,-23.43,0,*43
1497873780.77,54976,19.75,74722.0,30.31,-21.97,-21.47,0,*48
1497873782.0,54977,19.75,74720.3,30.27,-21.13,-20.79,0,*4E
1497873783.22,54978,19.75,74722.0,30.27,-19.85,-19.37,0,*45
1497873784.45,54979,19.75,74722.0,30.27,-19.65,-19.51,0,*4A
1497873785.67,54980,19.75,74720.5,30.27,-21.09,-20.79,0,*4D
1497873786.9,54981,19.75,74720.5,30.23,-21.87,-21.77,0,*41
1497873788.11,54982,19.75,74722.8,30.23,-22.41,-22.27,0,*4D
1497873789.33,54983,19.75,74720.5,30.23,-20.09,-19.81,0,*46
1497873790.58,54984,19.75,74722.3,30.21,-19.71,-19.41,0,*4A
1497873791.86,54985,19.75,74720.3,30.21,-20.49,-20.35,0,*43
1497873793.11,54986,19.75,74722.0,30.19,-20.49,-20.49,0,*40
1497873794.34,54987,19.75,74718.5,30.19,-20.43,-20.35,0,*40
1497873795.59,54988,19.75,74722.5,30.21,-20.93,-20.79,0,*41
1497873796.79,54989,19.75,74722.5,30.15,-19.51,-19.17,0,*41
1497873798.05,54990,19.75,74720.8,30.17,-18.25,-17.97,0,*4F
1497873799.33,54991,19.75,74718.3,30.17,-17.45,-17.17,0,*4F
1497873800.53,54992,19.75,74718.5,30.19,-17.87,-17.83,0,*41
1497873801.78,54993,19.75,74716.8,30.21,-18.35,-18.17,0,*4F
1497873803.03,54994,19.75,74716.8,30.21,-17.73,-17.45,0,*4D
1497873804.31,54995,19.75,74716.8,30.21,-17.11,-16.65,0,*4B
1497873805.58,54996,19.75,74722.0,30.25,-16.69,-16.31,0,*43
1497873806.84,54997,19.75,74720.0,30.31,-16.65,-16.31,0,*4B
1497873808.08,54998,19.75,74722.3,30.33,-17.11,-16.79,0,*48
1497873809.34,54999,19.75,74720.8,30.35,-17.07,-16.69,0,*49
1497873810.54,55000,19.75,74720.0,30.35,-17.49,-16.93,0,*4E
1497873811.8,55001,19.75,74722.0,30.37,-15.85,-15.25,0,*41
1497873813.03,55002,19.75,74716.8,30.43,-15.63,-15.01,0,*4F
1497873814.28,55003,19.75,74720.0,30.43,-15.57,-14.97,0,*47
1497873815.5,55004,19.75,74722.5,30.45,-15.99,-15.53,0,*4D
1497873816.79,55005,19.75,74716.8,30.49,-17.41,-17.07,0,*44
1497873818.01,55006,19.75,74718.3,30.53,-18.55,-18.21,0,*4D
1497873819.25,55007,19.75,74722.0,30.53,-17.83,-17.41,0,*41
1497873820.5,55008,19.75,74720.5,30.53,-17.93,-17.41,0,*4F
1497873821.73,55009,19.75,74718.0,30.55,-18.17,-17.73,0,*4A
1497873822.98,55010,19.75,74718.0,30.59,-18.79,-18.59,0,*41
1497873824.24,55011,19.75,74722.3,30.55,-18.07,-17.59,0,*4A
1497873825.49,55012,19.75,74718.3,30.57,-18.35,-18.01,0,*48
1497873826.75,55013,19.75,74722.0,30.59,-18.35,-17.87,0,*46
1497873828.0,55014,19.75,74720.3,30.61,-17.79,-17.25,0,*45
1497873829.23,55015,19.75,74720.3,30.61,-17.97,-17.49,0,*4E
1497873830.51,55016,19.75,74718.5,30.63,-17.59,-17.11,0,*40
1497873831.73,55017,19.75,74718.0,30.65,-19.41,-19.51,0,*4A
1497873832.98,55018,19.75,74722.0,30.63,-18.99,-18.55,0,*42
1497873834.2,55019,19.75,74720.0,30.65,-17.73,-17.17,0,*47
1497873835.46,55020,19.75,74716.8,30.67,-18.31,-17.83,0,*4B
1497873836.73,55021,19.75,74718.8,30.67,-18.89,-18.89,0,*4C
1497873838.02,55022,19.75,74718.5,30.67,-21.67,-21.23,0,*4F
1497873839.25,55023,19.75,74718.5,30.67,-20.73,-20.39,0,*40
1497873840.44,55024,19.75,74722.3,30.65,-19.99,-19.51,0,*4F
1497873841.73,55025,19.75,74718.5,30.63,-19.61,-19.41,0,*4E
1497873842.98,55026,19.75,74716.0,30.63,-23.03,-22.53,0,*4B
1497873844.24,55027,19.75,74718.3,30.63,-21.63,-21.27,0,*4E
1497873845.53,55028,19.75,74720.5,30.59,-21.67,-21.23,0,*48
1497873846.78,55029,19.75,74716.8,30.59,-24.11,-23.79,0,*40
1497873848.06,55030,19.75,74720.8,30.55,-25.81,-25.45,0,*45
1497873849.29,55031,19.75,74718.5,30.49,-22.93,-22.53,0,*4D
1497873850.5,55032,19.81,74724.5,30.47,-22.03,-21.57,0,*4E
1497873851.74,55033,19.75,74720.5,30.47,-21.53,-20.93,0,*40
1497873852.96,55034,19.75,74720.0,30.45,-21.47,-21.09,0,*42
1497873854.21,55035,19.75,74718.3,30.45,-22.37,-21.87,0,*41
1497873855.47,55036,19.75,74720.5,30.45,-22.83,-22.31,0,*43
1497873856.66,55037,19.75,74720.0,30.43,-22.87,-22.37,0,*46
1497873857.91,55038,19.75,74722.3,30.41,-22.41,-21.83,0,*4D
1497873859.17,55039,19.75,74718.3,30.41,-21.03,-20.59,0,*4F
1497873860.4,55040,19.75,74716.5,30.39,-20.93,-20.35,0,*4C
1497873861.66,55041,19.75,74716.5,30.41,-21.67,-21.17,0,*49
1497873862.91,55042,19.75,74718.3,30.41,-23.23,-22.57,0,*4F
1497873864.16,55043,19.75,74718.8,30.37,-22.31,-21.63,0,*49
1497873865.42,55044,19.75,74720.5,30.37,-21.73,-21.27,0,*4B
1497873866.68,55045,19.75,74720.3,30.37,-22.97,-22.31,0,*47
1497873867.9,55046,19.75,74720.0,30.33,-22.03,-21.47,0,*4F
1497873869.11,55047,19.75,74720.5,30.33,-21.63,-21.09,0,*41
1497873870.34,55048,19.75,74720.5,30.33,-20.59,-19.99,0,*44
1497873871.58,55049,19.75,74720.8,30.35,-19.81,-19.27,0,*49
1497873872.81,55050,19.81,74722.5,30.35,-19.65,-19.03,0,*4D
1497873874.06,55051,19.75,74716.0,30.35,-18.89,-18.35,0,*4B
1497873875.29,55052,19.75,74718.8,30.35,-21.03,-20.59,0,*41
1497873876.52,55053,19.75,74716.0,30.35,-20.53,-19.95,0,*4E
1497873877.75,55054,19.75,74716.8,30.35,-20.53,-20.05,0,*4A
1497873878.95,55055,19.75,74718.3,30.35,-21.13,-20.69,0,*44
1497873880.2,55056,19.75,74716.5,30.35,-20.19,-19.61,0,*4E
1497873881.42,55057,19.75,74716.8,30.35,-20.25,-19.65,0,*44
1497873882.65,55058,19.75,74718.8,30.37,-19.91,-19.13,0,*4D
1497873883.88,55059,19.75,74716.3,30.39,-19.75,-19.27,0,*4F
1497873885.14,55060,19.75,74716.3,30.37,-19.57,-18.99,0,*4F
1497873886.36,55061,19.75,74718.5,30.39,-20.35,-19.99,0,*4F
1497873887.57,55062,19.75,74720.5,30.39,-21.13,-20.69,0,*4C
1497873888.8,55063,19.75,74716.8,30.39,-19.51,-18.93,0,*4E
1497873890.0,55064,19.75,74716.3,30.39,-18.49,-18.17,0,*4D
1497873891.21,55065,19.75,74716.0,30.39,-19.51,-19.13,0,*41
1497873892.48,55066,19.75,74716.5,30.39,-20.99,-20.49,0,*49
1497873893.71,55067,19.75,74716.3,30.39,-21.93,-21.53,0,*49
1497873894.99,55068,19.75,74716.5,30.37,-22.73,-22.31,0,*42
1497873896.24,55069,19.75,74720.3,30.37,-22.47,-22.07,0,*41
1497873897.45,55070,19.75,74716.5,30.35,-21.43,-20.89,0,*48
1497873898.7,55071,19.75,74718.3,30.33,-19.95,-19.31,0,*46
1497873899.93,55072,19.75,74718.0,30.35,-18.73,-18.35,0,*4F
1497873901.16,55073,19.75,74718.8,30.39,-19.51,-18.93,0,*4F
1497873902.42,55074,19.81,74722.0,30.37,-20.05,-19.57,0,*44
1497873903.67,55075,19.75,74716.5,30.39,-19.41,-18.93,0,*48
1497873904.93,55076,19.75,74716.5,30.39,-19.57,-18.93,0,*4C
1497873906.14,55077,19.75,74718.8,30.39,-19.99,-19.51,0,*40
1497873907.4,55078,19.75,74716.3,30.39,-20.99,-20.49,0,*46
1497873908.62,55079,19.81,74720.8,30.41,-22.07,-21.47,0,*42
1497873909.83,55080,19.75,74716.3,30.39,-19.13,-18.45,0,*4E
1497873911.04,55081,19.75,74718.8,30.39,-18.83,-18.45,0,*47
1497873912.3,55082,19.75,74720.3,30.39,-21.87,-21.53,0,*47
1497873913.56,55083,19.81,74720.3,30.41,-21.27,-20.89,0,*45
1497873914.79,55084,19.75,74716.3,30.41,-19.95,-19.47,0,*48
1497873916.01,55085,19.75,74718.5,30.41,-20.05,-19.47,0,*4A
1497873917.23,55086,19.81,74720.0,30.41,-17.49,-16.93,0,*43
1497873918.43,55087,19.75,74718.5,30.43,-16.89,-16.41,0,*42
1497873919.68,55088,19.75,74718.8,30.45,-18.17,-17.79,0,*48
1497873920.91,55089,19.75,74716.3,30.47,-19.65,-19.17,0,*49
1497873922.16,55090,19.75,74718.5,30.47,-18.01,-17.55,0,*4A
1497873923.41,55091,19.75,74716.3,30.49,-17.21,-16.79,0,*47
1497873924.66,55092,19.75,74718.8,30.53,-17.55,-17.17,0,*45
1497873925.94,55093,19.81,74718.5,30.55,-17.79,-17.45,0,*4B
1497873927.13,55094,19.81,74722.3,30.57,-17.73,-17.31,0,*47
1497873928.34,55095,19.75,74716.5,30.57,-18.17,-17.83,0,*42
1497873929.57,55096,19.75,74718.5,30.57,-20.19,-19.99,0,*41
1497873930.8,55097,19.75,74718.8,30.57,-19.27,-18.65,0,*45
1497873932.05,55098,19.75,74716.3,30.57,-17.59,-17.25,0,*46
1497873933.26,55099,19.81,74720.5,30.57,-18.25,-17.87,0,*4B
1497873934.5,55100,19.81,74722.3,30.61,-16.59,-16.17,0,*42
1497873935.72,55101,19.81,74718.8,30.65,-16.79,-16.51,0,*47
1497873936.93,55102,19.75,74718.8,30.65,-17.69,-17.17,0,*47
1497873938.18,55103,19.75,74718.0,30.65,-17.55,-17.25,0,*48
1497873939.46,55104,19.81,74720.0,30.67,-17.97,-17.79,0,*4A
1497873940.69,55105,19.81,74722.0,30.69,-17.49,-17.21,0,*4B
1497873941.91,55106,19.81,74722.0,30.69,-17.55,-17.69,0,*49
1497873943.16,55107,19.75,74718.3,30.71,-18.65,-18.55,0,*4D
1497873944.38,55108,19.75,74718.8,30.71,-18.99,-18.99,0,*41
1497873945.58,55109,19.75,74716.0,30.69,-20.29,-20.43,0,*45
1497873946.78,55110,19.75,74716.5,30.69,-18.69,-18.73,0,*4A
1497873948.01,55111,19.75,74718.5,30.69,-18.31,-18.41,0,*47
1497873949.26,55112,19.75,74716.5,30.71,-18.35,-18.49,0,*41
1497873950.54,55113,19.81,74718.3,30.71,-16.13,-16.27,0,*4C
1497873951.77,55114,19.75,74716.5,30.77,-15.99,-16.09,0,*40
1497873952.97,55115,19.75,74718.0,30.77,-16.37,-16.59,0,*43
1497873954.23,55116,19.75,74716.3,30.79,-16.27,-16.75,0,*41
1497873955.44,55117,19.75,74716.5,30.81,-14.69,-15.01,0,*4F
1497873956.71,55118,19.81,74720.5,30.85,-14.75,-15.21,0,*4B
1497873957.92,55119,19.81,74716.3,30.87,-14.23,-14.69,0,*46
1497873959.14,55120,19.81,74722.5,30.91,-15.53,-16.23,0,*41
1497873960.37,55121,19.81,74720.3,30.93,-14.29,-14.89,0,*4C
1497873961.61,55122,19.75,74716.5,30.95,-14.43,-15.25,0,*42
1497873962.84,55123,19.81,74722.0,30.99,-13.93,-14.79,0,*4D
1497873964.08,55124,19.81,74720.3,31.01,-13.93,-14.93,0,*4E
1497873965.34,55125,19.81,74720.3,31.07,-13.83,-14.55,0,*42
1497873966.56,55126,19.81,74716.5,31.05,-13.65,-14.61,0,*4C
1497873967.81,55127,19.75,74718.0,31.09,-13.61,-14.89,0,*43
1497873969.03,55128,19.81,74720.8,31.13,-17.49,-19.17,0,*43
1497873970.23,55129,19.81,74718.3,31.11,-17.87,-19.51,0,*40
1497873971.45,55130,19.75,74716.8,31.09,-16.79,-18.73,0,*40
1497873972.65,55131,19.75,74718.0,31.07,-18.73,-20.73,0,*40
1497873973.85,55132,19.75,74716.3,31.07,-18.11,-20.25,0,*44
1497873975.06,55133,19.81,74720.5,31.03,-18.17,-20.25,0,*47
1497873976.29,55134,19.81,74720.3,31.03,-16.79,-18.93,0,*40
1497873977.49,55135,19.81,74720.3,31.03,-16.45,-18.45,0,*45
1497873978.72,55136,19.75,74718.5,31.03,-13.93,-16.17,0,*41
1497873979.98,55137,19.81,74722.3,31.05,-13.29,-15.53,0,*44
1497873981.21,55138,19.81,74722.3,31.09,-13.19,-15.49,0,*4F
1497873982.46,55139,19.81,74722.3,31.13,-13.23,-15.57,0,*43
1497873983.66,55140,19.81,74720.0,31.11,-13.51,-16.03,0,*48
1497873984.91,55141,19.75,74718.8,31.13,-13.37,-16.03,0,*4B
1497873986.13,55142,19.75,74718.8,31.17,-13.37,-15.99,0,*4C
1497873987.32,55143,19.81,74718.0,31.17,-13.07,-15.67,0,*4F
1497873988.59,55144,19.81,74718.3,31.23,-12.61,-15.35,0,*49
1497873989.85,55145,19.81,74718.0,31.23,-12.75,-15.49,0,*46
1497873991.1,55146,19.81,74718.0,31.27,-12.47,-15.21,0,*4E
1497873992.35,55147,19.81,74718.5,31.27,-12.29,-15.35,0,*42
1497873993.6,55148,19.81,74720.0,31.29,-12.53,-15.39,0,*42
1497873994.84,55149,19.81,74720.0,31.31,-13.87,-16.89,0,*4A
1497873996.06,55150,19.81,74720.8,31.33,-13.11,-16.27,0,*4B
1497873997.31,55151,19.81,74722.3,31.33,-12.53,-15.81,0,*42
1497873998.59,55152,19.81,74716.8,31.35,-11.81,-15.39,0,*48
1497873999.83,55153,19.81,74722.5,31.39,-11.73,-15.15,0,*46
1497874001.1,55154,19.81,74720.5,31.39,-12.35,-16.23,0,*46
1497874002.37,55155,19.81,74718.8,31.39,-12.57,-16.17,0,*44
1497874003.62,55156,19.81,74722.0,31.41,-12.53,-16.27,0,*4F
1497874004.85,55157,19.81,74722.5,31.41,-12.21,-15.89,0,*4C
1497874006.07,55158,19.81,74720.3,31.45,-11.93,-15.63,0,*49
1497874007.32,55159,19.81,74722.0,31.45,-10.71,-14.51,0,*45
1497874008.6,55160,19.81,74720.0,31.47,-10.63,-14.47,0,*49
1497874009.82,55161,19.81,74722.5,31.49,-10.23,-13.87,0,*49
1497874011.04,55162,19.81,74724.0,31.53,-10.05,-13.79,0,*44
1497874012.27,55163,19.81,74724.3,31.53,-10.01,-13.61,0,*48
1497874013.53,55164,19.81,74720.0,31.55,-11.23,-14.75,0,*4A
1497874014.81,55165,19.81,74718.8,31.59,-9.11,-11.93,0,*72
1497874016.05,55166,19.81,74720.3,31.61,-8.93,-11.55,0,*7B
1497874017.3,55167,19.81,74720.0,31.67,-9.75,-11.97,0,*7B
1497874018.56,55168,19.81,74716.5,31.67,-10.57,-13.01,0,*41
1497874019.8,55169,19.81,74722.3,31.69,-13.97,-16.55,0,*45
1497874021.07,55170,19.81,74716.8,31.63,-13.01,-15.29,0,*40
1497874022.36,55171,19.81,74720.5,31.63,-15.81,-18.31,0,*4B
1497874023.62,55172,19.81,74720.3,31.59,-17.79,-20.25,0,*4A
1497874024.85,55173,19.81,74722.5,31.51,-17.69,-20.05,0,*40
1497874026.1,55174,19.81,74720.3,31.47,-17.07,-19.47,0,*44
1497874027.32,55175,19.81,74718.3,31.37,-17.21,-19.37,0,*41
1497874028.57,55176,19.81,74722.5,31.33,-17.45,-19.61,0,*47
1497874029.79,55177,19.81,74720.8,31.25,-14.83,-16.89,0,*41
1497874031.01,55178,19.81,74718.3,31.25,-14.55,-16.83,0,*4F
1497874032.27,55179,19.81,74716.8,31.21,-14.47,-17.11,0,*43
1497874033.51,55180,19.81,74720.3,31.13,-14.69,-17.41,0,*4D
1497874034.74,55181,19.81,74720.5,31.09,-14.19,-16.83,0,*4F
1497874035.97,55182,19.81,74722.3,31.03,-14.33,-17.11,0,*44
1497874037.22,55183,19.81,74716.5,30.99,-13.37,-16.27,0,*40
1497874038.5,55184,19.81,74718.5,30.93,-14.43,-17.63,0,*48
1497874039.74,55185,19.81,74720.0,30.85,-15.57,-18.73,0,*44
1497874040.94,55186,19.81,74722.5,30.81,-15.15,-18.65,0,*42
1497874042.22,55187,19.81,74718.8,30.71,-17.03,-20.99,0,*41
1497874043.43,55188,19.81,74716.8,30.61,-15.49,-19.95,0,*45
1497874044.68,55189,19.81,74720.8,30.53,-13.83,-18.55,0,*48
1497874045.94,55190,19.81,74718.0,30.45,-12.25,-17.59,0,*49
1497874047.21,55191,19.81,74718.5,30.37,-13.51,-19.57,0,*4F
1497874048.46,55192,19.81,74720.3,30.25,-13.83,-20.69,0,*47
1497874049.71,55193,19.81,74716.8,30.13,-16.55,-23.99,0,*41
1497874050.91,55194,19.81,74718.8,30.03,-16.37,-24.31,0,*46
1497874052.2,55195,19.81,74718.8,29.89,-13.97,-21.83,0,*4E
1497874053.44,55196,19.81,74716.5,29.79,-13.15,-20.99,0,*42
1497874054.68,55197,19.81,74716.8,29.69,-11.93,-19.37,0,*40
1497874055.9,55198,19.81,74720.8,29.65,-10.63,-18.25,0,*4F
1497874057.17,55199,19.81,74718.8,29.57,-11.63,-19.57,0,*4A
1497874058.42,55200,19.81,74716.5,29.49,-12.65,-20.63,0,*4E
1497874059.62,55201,19.81,74716.5,29.43,-12.39,-20.29,0,*42
1497874060.85,55202,19.81,74718.5,29.31,-16.51,-24.77,0,*41
1497874062.08,55203,19.81,74718.0,29.21,-16.83,-25.45,0,*4E
1497874063.34,55204,19.81,74716.5,29.03,-21.57,-30.83,0,*4A
1497874064.59,55205,19.81,74716.8,28.87,-20.53,-29.51,0,*44
1497874065.79,55206,19.81,74718.0,28.75,-17.87,-26.61,0,*4B
1497874067.04,55207,19.81,74716.3,28.61,-18.25,-27.19,0,*46
1497874068.26,55208,19.81,74718.8,28.53,-17.59,-26.49,0,*48
1497874069.51,55209,19.81,74716.5,28.39,-17.31,-26.29,0,*4D
1497874070.77,55210,19.81,74714.8,28.31,-16.69,-25.87,0,*46
1497874072.03,55211,19.81,74718.8,28.21,-14.93,-23.95,0,*44
1497874073.29,55212,19.81,74714.8,28.13,-14.93,-23.95,0,*46
1497874074.51,55213,19.81,74718.3,28.05,-14.69,-24.05,0,*4B
1497874075.77,55214,19.81,74716.5,27.95,-14.47,-23.75,0,*46
1497874077.0,55215,19.81,74718.3,27.87,-13.43,-22.57,0,*46
1497874078.28,55216,19.81,74716.3,27.83,-13.01,-22.31,0,*47
1497874079.52,55217,19.81,74714.3,27.75,-15.01,-24.97,0,*43
1497874080.8,55218,19.81,74718.5,27.67,-17.59,-27.61,0,*4A
1497874082.08,55219,19.81,74714.8,27.55,-17.41,-27.45,0,*45
1497874083.33,55220,19.81,74716.5,27.47,-16.09,-25.87,0,*4D
1497874084.54,55221,19.81,74718.5,27.37,-15.63,-25.13,0,*49
1497874085.79,55222,19.81,74716.3,27.29,-15.25,-24.71,0,*42
1497874087.01,55223,19.81,74716.0,27.25,-15.29,-24.77,0,*45
1497874088.22,55224,19.81,74716.3,27.15,-13.23,-22.41,0,*4E
1497874089.44,55225,19.81,74716.3,27.09,-13.65,-22.83,0,*4E
1497874090.64,55226,19.81,74716.0,27.03,-13.15,-22.07,0,*4C
1497874091.87,55227,19.81,74718.8,26.95,-13.51,-22.27,0,*41
1497874093.13,55228,19.81,74720.3,26.89,-14.05,-23.53,0,*47
1497874094.39,55229,19.81,74716.5,26.83,-16.27,-25.13,0,*4C
1497874095.59,55230,19.81,74716.5,26.73,-13.65,-22.37,0,*49